• Processing (Info)

  • MPEC 1999-K16 : 1999 KK1

    The following Minor Planet Electronic Circular may be linked-to from your own Web pages, but must not otherwise be redistributed electronically.

    A form allowing access to any MPEC is at the bottom of this page.


    Read MPEC 1999-K15 Read MPEC 1999-K17


    M.P.E.C. 1999-K16                                Issued 1999 May 20, 21:02 UT
    
         The Minor Planet Electronic Circulars contain information on unusual
             minor planets and routine data on comets.  They are published
       on behalf of Commission 20 of the International Astronomical Union by the
              Minor Planet Center, Smithsonian Astrophysical Observatory,
                              Cambridge, MA 02138, U.S.A.
    
                 BMARSDEN@CFA.HARVARD.EDU or GWILLIAMS@CFA.HARVARD.EDU
              URL http://cfa-www.harvard.edu/iau/mpc.html  ISSN 1523-6714
    
                                       1999 KK1
    
    Observations:
         J99K01K* C1999 05 17.20215 13 49 03.80 -00 50 25.5          18.9        704
         J99K01K  C1999 05 17.22657 13 49 01.71 -00 50 27.2          19.0        704
         J99K01K  C1999 05 17.23880 13 49 00.70 -00 50 25.7          19.6        704
         J99K01K  C1999 05 17.25104 13 48 59.24 -00 50 28.4          19.2        704
         J99K01K  C1999 05 18.14755 13 47 45.72 -00 51 40.2                      704
         J99K01K  C1999 05 18.17542 13 47 43.32 -00 51 42.0                      704
         J99K01K  C1999 05 18.20330 13 47 40.92 -00 51 45.2                      704
         J99K01K  C1999 05 18.89402 13 46 44.46 -00 52 53.9                      118
         J99K01K  C1999 05 18.89964 13 46 43.92 -00 52 56.9                      557
         J99K01K  C1999 05 18.90079 13 46 43.81 -00 52 54.8                      118
         J99K01K  C1999 05 18.90197 13 46 43.72 -00 52 56.4          19.2 V      557
         J99K01K  C1999 05 18.90471 13 46 43.51 -00 52 54.6                      118
         J99K01K  C1999 05 19.16518 13 46 22.84 -00 53 21.6          19.9        704
         J99K01K  C1999 05 19.17908 13 46 21.63 -00 53 23.8          19.5        704
         J99K01K  C1999 05 19.19303 13 46 20.43 -00 53 27.8          19.6        704
         J99K01K  C1999 05 19.20695 13 46 19.13 -00 53 27.6          19.6        704
         J99K01K  C1999 05 19.87719 13 45 25.67 -00 54 50.8          18.0 R      046
         J99K01K  C1999 05 19.87957 13 45 25.48 -00 54 51.3                      046
         J99K01K  C1999 05 19.88544 13 45 24.90 -00 54 52.6                      046
         J99K01K  C1999 05 19.88743 13 45 24.77 -00 54 52.7                      046
         J99K01K  C1999 05 19.88973 13 45 24.70 -00 54 52.6                      046
    
    Observer details:
    046 Klet.  Observers M. Tichy, Z. Moravec.  Measurer M. Tichy.  0.57-m f/5.2
        reflector + CCD.
    118 Modra.  Observers L. Kornos, J. Toth.  0.6-m f/5.5 reflector + CCD.
    557 Ondrejov.  Observer P. Pravec.  0.65-m f/3.6 reflector + CCD.
    704 Lincoln Laboratory ETS, New Mexico.  Observers M. Blythe, F. Shelly,
        M. Bezpalko, M. Elowitz.  Measurers J. Stuart, H. Viggh, R. Sayer.  1.0-m
        f/2.15 reflector + CCD.
    
    Orbital elements:
    1999 KK1
    Epoch 1999 May 2.0 TT = JDT 2451300.5                   Williams
    M 322.73636              (2000.0)            P               Q
    n   0.30218549     Peri.  230.89799     +0.59521775     +0.79378995
    a   2.1993127      Node    76.07836     -0.69179771     +0.58530738
    e   0.4801197      Incl.    7.39649     -0.40881751     +0.16526582
    P   3.26           H   18.1           G   0.15
    From 21 observations 1999 May 17-19.
    
    Ephemeris:
    1999 KK1                 a,e,i = 2.20, 0.48, 7                   q = 1.1434
    Date    TT    R. A. (2000) Decl.     Delta      r     Elong.  Phase     V
    1999 05 12    13 56.56   -00 49.3    0.660    1.631   154.4    15.5    19.1
    1999 05 17    13 49.34   -00 50.1    0.647    1.599   148.6    19.2    19.1
    1999 05 22    13 42.69   -01 00.1    0.638    1.568   142.7    23.0    19.2
    1999 05 27    13 36.85   -01 20.0    0.632    1.537   137.0    26.7    19.2
    1999 06 01    13 32.04   -01 49.7    0.629    1.506   131.5    30.3    19.3
    1999 06 06    13 28.38   -02 29.2    0.628    1.475   126.2    33.7    19.3
    1999 06 11    13 25.99   -03 18.1    0.629    1.445   121.3    36.9    19.4
    1999 06 16    13 24.93   -04 16.0    0.631    1.416   116.7    39.9    19.4
    1999 06 21    13 25.23   -05 22.5    0.633    1.387   112.4    42.6    19.5
    1999 06 26    13 26.87   -06 37.0    0.636    1.360   108.5    45.1    19.5
    1999 07 01    13 29.82   -07 59.0    0.638    1.333   105.0    47.5    19.5
    1999 07 06    13 34.05   -09 27.8    0.641    1.307   101.7    49.6    19.6
    1999 07 11    13 39.54   -11 03.1    0.642    1.283    98.8    51.6    19.6
    1999 07 16    13 46.30   -12 44.5    0.643    1.260    96.2    53.3    19.6
    1999 07 21    13 54.32   -14 31.3    0.643    1.238    93.8    55.0    19.6
    1999 07 26    14 03.59   -16 23.1    0.642    1.219    91.8    56.4    19.6
    1999 07 31    14 14.14   -18 18.9    0.641    1.201    90.1    57.7    19.6
    
    1999 08 10    14 39.25   -22 19.1    0.636    1.172    87.4    59.8    19.6
    1999 08 20    15 10.26   -26 22.2    0.631    1.153    85.8    61.1    19.6
    1999 08 30    15 47.77   -30 12.4    0.627    1.144    85.3    61.6    19.6
    1999 09 09    16 32.18   -33 27.4    0.628    1.146    85.6    61.2    19.6
    1999 09 19    17 23.04   -35 40.2    0.636    1.158    86.8    60.0    19.6
    1999 09 29    18 18.15   -36 26.2    0.654    1.181    88.4    58.0    19.6
    1999 10 09    19 13.88   -35 34.1    0.686    1.213    90.1    55.5    19.7
    1999 10 19    20 06.60   -33 13.3    0.733    1.253    91.5    52.7    19.9
    1999 10 29    20 53.95   -29 48.4    0.796    1.299    92.4    49.8    20.0
    1999 11 08    21 35.38   -25 47.3    0.875    1.351    92.6    47.1    20.2
    1999 11 18    22 11.50   -21 32.7    0.968    1.407    91.9    44.6    20.5
    1999 11 28    22 43.28   -17 19.8    1.076    1.465    90.4    42.3    20.7
    1999 12 08    23 11.68   -13 17.0    1.196    1.526    88.3    40.2    21.0
    1999 12 18    23 37.58   -09 27.9    1.327    1.589    85.5    38.1    21.2
    1999 12 28    00 01.58   -05 54.1    1.467    1.652    82.3    36.1    21.5
    2000 01 07    00 24.18   -02 35.3    1.614    1.716    78.6    34.2    21.7
    2000 01 17    00 45.78   +00 29.1    1.767    1.779    74.6    32.2    21.9
    
    Gareth V. Williams           (C) Copyright 1999 MPC           M.P.E.C. 1999-K16
    

    Read MPEC 1999-K15 Read MPEC 1999-K17


    MPEC number:

    Enter an MPEC number in one of the following forms:

    • 1997-B01 (the full form)
    • J97B01 (the packed version of the full form)
    • B01 (the abbreviated form)